Lovell Field
KCHA : now visible

Airfield :











YOU CAN JOIN US ON...

 
LOGIN :

Register | Disclaimer

   EN    FR    IT 

 









Legend :    VFR   Marginal VFR   IFR   Intensive IFR   Very Intensive IFR
Visi :
Ceiling :
>= 8 km
>= 3000ft
5 to 8 km
1000 to 3000 ft
1500m to 5 km
500 to 1000 ft
800 to 1500m
200 to 500 ft
< 800m
< 200 ft
Symbols :   Thunderstorms  Fog  Heavy snow  Heavy precipitations  Wind > 20 kt







- Airport Elevation : 683 ft
- IATA code : CHA


KCHA - Lovell Field

CURRENT METAR :
  • 241753Z 24008KT 10SM SCT055 BKN075 32/19 A3018 RMK AO2 SLP210 T03170194 10328 20233 58010 $

EXPIRED METARs :
  • 241653Z 00000KT 10SM SCT055 BKN080 32/19 A3019 RMK AO2 SLP215 T03170194 $
  • 241553Z 00000KT 10SM SCT060 BKN075 31/21 A3020 RMK AO2 SLP219 T03060206 $

TAF KCHA
Valid from the 24 at 18:00 until the 25 at 18:00 UTC


241720Z 2418/2518 24005KT P6SM SCT050
KZTL FIR / North America



MET'MAP, your aeronautical weather chart ! - Copyright ORBIFLY December 2007 - Disclaimer

ORBIFLY MET'MAP TEAM :

Programming & Development : Alexandra Zaïnal
Concept & Development : Baudouin d'Aumeries
Co-Development & Prog : Marc-Olivier Méhu
Technical & hardware support : Manuel Goepfert

Contact : metmap@orbifly.com




SOURCES & CREDITS :

   NOAA       Earth
Advisory